SCP
0 0 0 0 0 0 0 0 0 0 0 0 0 0 0 0 0 0 0 0 0 -0 -0 -0 -0 0 0 0 0 0 0 0 0 0 0 0 1 1 0 0 0 0 0
0 0 0 0 0 0 0 0 0 0 0 0 0 0 0 0 0 0 0 0 0 -0 -0 0 -0 0 0 0 0 0 0 0 0 0 1 0 0 0 0 0 0 0 0
0 0 0 0 0 0 0 0 0 0 0 0 0 0 0 0 0 0 0 0 0 -0 0 0 0 -0 0 0 0 0 0 0 0 0 1 0 0 0 0 0 0 0 0
0 0 0 0 0 0 0 0 0 0 0 0 0 0 0 0 0 0 0 0 0 -0 0 0 0 -0 0 0 0 0 0 0 0 1 1 0 0 0 0 0 0 0 0
0 0 0 0 0 0 0 0 0 0 0 0 0 0 0 0 0 0 0 0 0 -0 0 -0 -0 0 0 0 0 0 0 0 0 1 1 0 0 0 0 0 0 0 0
0 0 0 0 0 0 0 0 0 0 0 0 0 0 0 0 0 0 0 0 0 0 -0 -0 0 0 0 0 0 0 0 0 0 1 0 0 0 0 0 0 0 0 0
0 0 0 0 0 0 0 0 0 0 0 0 0 0 0 0 0 0 0 0 0 0 -0 -0 0 0 0 0 0 0 0 0 0 0 0 0 0 0 0 0 0 0 0
0 0 0 0 0 0 0 0 0 0 0 0 0 0 0 0 0 0 0 0 0 -0 -0 -0 0 0 0 0 0 0 0 0 0 0 0 0 0 0 0 0 0 0 0
0 0 0 0 0 0 0 0 0 0 0 0 0 0 0 0 0 0 0 -0 0 0 -0 -0 -0 0 0 0 0 0 0 0 0 0 0 0 0 0 0 0 0 0 0
0 0 -0 0 0 -0 0 0 0 0 0 0 0 0 0 0 0 0 0 -0 -0 -0 -0 -0 -0 0 0 0 0 0 0 0 0 0 0 0 0 0 0 0 0 0 0
0 0 -0 0 -0 -0 0 0 0 0 0 -0 0 0 0 0 0 0 0 -0 -0 -0 -0 0 -0 -0 0 0 0 0 0 0 0 0 0 0 0 0 0 0 0 0 0
-0 -0 -0 -0 -0 -0 0 0 0 0 0 0 0 0 0 0 0 0 0 0 -0 0 0 -0 0 0 0 0 0 0 0 0 0 0 0 0 0 0 0 0 0 0 0
-0 -0 -0 -0 -0 -0 0 0 0 0 0 0 0 0 0 0 0 0 0 0 0 -0 0 0 0 0 0 0 0 0 0 0 0 0 0 0 0 0 0 0 0 0 0
-0 -0 -0 -0 -0 -0 -0 0 0 0 0 0 0 0 0 0 0 0 0 0 0 -0 -0 0 0 0 0 0 -0 0 0 0 -0 0 -0 0 0 0 -0 -0 0 0 -0
-0 -0 -0 -0 -0 -0 -0 -0 -0 0 0 0 -0 0 0 0 0 0 0 0 0 -0 -0 0 0 0 -0 0 -0 -0 -0 -0 -0 0 0 0 -0 0 -0 -0 0 0 -0
-0 -0 -0 -0 -0 -0 -0 -0 -0 -0 0 0 -0 -0 0 0 0 0 -0 -0 0 0 -0 0 0 0 0 0 0 -0 -0 -0 -0 -0 0 -0 -0 0 0 0 -0 0 0
-0 -0 -0 -0 -0 -0 -0 -0 -0 -0 -0 -0 -0 -0 0 0 0 -0 0 0 0 0 0 -0 0 0 0 0 0 0 0 0 -0 -0 0 0 0 0 0 0 0 0 -0
-0 -0 -0 -0 -0 -0 -0 -0 -0 -0 -0 -0 -0 -0 -0 -0 0 0 0 0 0 0 0 0 0 0 0 0 0 0 0 0 -0 0 0 0 0 0 -0 0 0 0 0
-0 -0 -0 -0 -0 -0 -0 -0 -0 -0 -0 -0 -0 -0 -0 0 0 0 0 0 0 0 0 0 0 0 0 0 0 0 0 0 0 0 0 0 0 0 -0 -0 -0 -0 -0
0 -0 -0 -0 -0 -0 -0 -0 -0 -0 -0 -0 -0 -0 -0 0 0 0 0 0 0 0 0 0 0 0 0 -0 -0 -0 -0 -0 0 0 0 0 -0 0 -0 -0 -0 -0 -0
0 -0 -0 -0 -0 -0 -0 -0 -0 -0 -0 -0 -0 -0 -0 0 0 0 0 0 0 0 -0 0 0 -0 -0 -0 -0 0 0 0 0 -0 -0 -0 0 0 0 -0 -0 0 -0
0 -0 -0 0 -0 -0 -0 -0 -0 -0 -0 -0 -0 -0 -0 -0 0 -0 -0 -0 0 0 0 0 0 -0 0 0 -0 0 -0 -0 -0 -0 -0 0 -0 0 0 0 0 0 0
0 -0 -0 -0 -0 -0 -0 -0 -0 -0 -0 -0 -0 -0 -0 -0 -0 -0 -0 -0 -0 0 0 -0 0 0 -0 0 0 0 0 -0 0 -0 -0 -0 0 0 0 0 0 0 0
0 0 0 -0 -0 -0 0 0 -0 -0 -0 0 -0 -0 -0 -0 -0 -0 -0 -0 -0 -0 -0 -0 0 0 -0 -0 0 0 -0 -0 -0 -0 -0 0 0 0 0 0 0 0 0
0 0 0 0 -0 0 0 0 0 -0 0 0 0 0 0 0 0 0 -0 -0 -0 -0 -0 0 -0 -0 0 0 -0 0 0 0 0 0 0 0 0 0 0 0 0 0 0
0 0 0 0 0 0 0 0 0 0 0 0 0 0 0 0 0 0 0 0 -0 -0 -0 -0 0 0 0 -0 -0 0 0 0 0 0 0 0 0 0 0 0 0 0 0
Wind_Speed_500mb
38 41 40 32 28 20 16 10 10 11 15 15 21 20 20 12 19 26 23 16 18 28 20 18 20 22 23 34 32 47 44 43 43 39 36 27 29 35 45 55 60 56 62
45 42 39 37 31 22 15 14 6 11 11 7 18 23 19 15 18 22 25 15 5 19 22 18 21 24 23 31 35 45 48 47 46 44 38 24 24 29 52 60 63 63 64
45 45 41 39 31 24 20 12 11 10 6 4 15 18 24 24 16 16 21 19 1 13 20 24 21 21 23 28 32 36 34 36 43 37 38 31 18 42 51 55 65 64 62
45 50 45 41 34 25 19 16 11 4 9 5 7 21 24 29 16 10 22 16 8 10 17 32 24 27 21 22 28 25 21 33 44 37 41 28 41 33 49 65 71 58 72
52 54 48 41 33 26 23 16 11 6 6 12 17 13 23 28 21 5 14 11 10 7 19 30 26 33 22 22 27 30 34 36 36 42 40 42 53 35 53 69 68 61 63
46 47 42 39 33 27 22 17 13 8 4 4 15 19 28 30 18 7 9 17 14 5 17 31 35 28 22 28 28 26 32 34 37 39 36 40 51 45 61 69 67 62 61
45 47 45 42 35 28 25 17 14 9 5 4 8 15 22 20 23 16 13 15 20 12 18 27 34 33 25 26 30 28 35 37 42 41 48 44 43 53 68 66 64 64 56
43 45 45 40 35 29 25 19 15 11 5 2 3 11 11 21 26 24 20 18 18 17 23 21 25 27 27 32 30 32 35 36 47 46 46 49 41 55 60 75 83 69 63
42 44 44 39 33 30 26 20 14 12 8 2 2 7 12 15 22 21 24 27 20 26 23 27 24 31 33 35 42 47 51 48 50 50 47 47 47 53 66 67 73 70 56
41 44 42 38 31 29 27 23 17 13 10 4 2 6 7 16 18 19 20 23 26 33 30 33 36 37 41 47 52 51 52 50 46 43 42 42 48 54 62 50 57 59 66
44 44 42 37 31 29 27 26 19 15 12 7 6 9 7 12 9 16 22 22 30 27 30 37 39 41 42 48 50 51 50 44 45 42 39 35 46 63 55 64 55 49 51
44 41 41 37 34 31 30 26 22 17 15 10 10 12 10 12 11 21 28 29 23 25 30 35 39 42 40 40 39 38 41 41 38 35 28 47 51 55 57 54 45 50 33
42 40 40 39 37 34 33 26 25 21 17 16 12 15 13 13 14 16 25 32 29 29 34 36 37 38 43 39 37 37 39 39 38 33 29 52 54 54 53 57 42 35 25
45 41 42 41 40 37 35 30 26 25 21 20 16 19 15 14 20 22 19 28 31 40 37 33 33 31 34 30 33 37 43 37 34 31 35 43 52 50 63 49 34 32 25
50 45 44 44 44 42 38 33 28 29 25 24 21 23 20 21 22 21 24 22 32 41 38 41 38 25 34 38 40 43 39 40 47 42 44 53 53 44 53 45 33 34 31
51 47 45 46 48 48 44 38 32 33 29 29 25 25 25 24 25 24 27 26 30 28 27 27 33 36 41 34 42 43 42 44 44 43 48 49 36 36 31 27 29 32 31
54 53 52 50 51 52 47 44 37 36 34 31 29 29 32 28 26 25 28 29 27 28 24 15 32 40 42 39 39 38 40 40 40 39 42 40 35 31 37 40 37 36 37
54 60 57 54 54 52 50 45 42 39 37 35 33 34 33 32 30 28 28 33 33 27 21 21 30 35 38 39 39 37 39 42 44 38 35 43 45 39 36 36 46 38 37
52 63 64 59 57 55 53 51 47 44 41 38 37 37 38 38 36 33 32 29 36 32 28 21 27 29 34 39 36 30 36 34 40 30 27 33 35 35 32 31 32 30 28
45 57 66 65 59 60 59 57 52 50 47 41 40 37 40 42 41 41 36 30 34 34 29 23 18 25 32 33 31 27 20 28 34 34 29 32 29 30 31 29 28 28 24
43 51 70 71 67 67 65 64 59 56 50 43 41 39 40 46 43 43 41 38 35 29 29 24 24 21 30 33 35 33 25 21 26 26 31 32 35 37 36 32 28 20 17
42 53 69 72 69 69 70 67 62 56 50 46 44 42 43 44 46 47 44 40 39 34 36 31 28 26 28 35 38 39 29 26 23 22 31 33 34 37 33 27 19 17 16
42 48 60 68 70 71 74 73 64 57 52 49 48 48 47 42 46 51 48 43 44 37 41 35 34 29 30 36 44 49 40 38 32 28 36 37 36 34 26 17 14 15 19
39 46 56 68 72 71 71 72 65 62 55 53 53 54 51 44 47 47 52 49 47 49 39 40 36 35 33 37 49 57 50 50 41 38 32 30 28 24 22 20 20 23 24
42 47 49 58 64 67 68 70 67 67 62 59 57 58 57 47 50 45 46 47 45 49 44 42 38 39 44 41 49 55 54 55 46 40 32 29 26 24 24 23 25 15 8
41 49 42 45 56 60 64 68 72 69 68 66 63 64 59 54 54 51 45 36 41 32 45 38 38 37 41 35 42 50 51 51 48 37 31 27 25 23 17 9 4 14 25
Wind_Direction_500mb
183 185 194 200 207 209 222 232 258 287 309 4 327 318 325 348 344 340 343 323 261 230 223 226 208 187 179 181 180 180 178 176 170 174 175 171 182 186 177 172 173 171 163
158 175 190 197 206 212 210 222 249 270 308 326 311 343 334 315 309 329 344 346 296 200 209 204 183 178 177 182 175 176 177 180 173 177 159 138 155 185 185 183 174 167 175
163 177 185 196 202 204 208 201 225 255 349 34 344 318 320 327 324 339 344 359 223 201 195 169 155 162 176 182 168 177 183 171 175 182 169 143 163 150 175 178 176 169 164
175 179 184 193 198 202 199 194 210 234 325 299 335 328 332 343 314 318 4 24 69 172 175 165 172 162 141 170 162 155 153 163 174 161 168 159 151 163 142 153 157 162 160
173 176 181 188 192 194 191 187 209 225 251 350 348 360 353 349 347 324 14 49 60 141 181 168 170 164 164 175 161 158 162 162 171 166 170 147 147 163 133 130 143 147 155
165 170 177 182 185 189 189 189 200 215 217 326 342 359 345 358 9 63 49 47 41 103 163 169 162 172 185 179 178 160 162 155 158 156 170 153 153 159 134 135 145 149 160
159 166 173 176 182 184 186 188 204 206 207 277 350 17 359 26 55 85 54 50 49 95 138 165 174 183 181 175 177 164 157 154 151 151 157 156 144 155 160 152 151 147 153
159 169 174 177 180 182 187 189 194 203 183 249 10 27 354 23 70 67 51 50 57 93 128 139 156 175 179 171 161 145 144 146 143 147 152 147 143 161 160 155 159 140 144
161 169 173 178 180 184 187 186 197 195 195 223 78 59 3 49 64 54 54 42 78 107 120 131 150 151 151 150 150 144 144 142 145 156 150 151 153 159 167 156 149 146 138
164 170 174 178 181 184 186 187 194 197 197 163 99 82 34 58 46 52 61 56 91 110 104 126 130 143 147 147 149 152 150 137 130 135 152 150 154 159 165 175 174 160 154
170 171 175 177 182 182 185 188 192 188 192 168 162 117 98 85 71 68 70 80 101 108 95 114 123 137 143 148 153 157 151 144 140 134 122 143 150 167 168 164 164 167 165
174 174 176 177 184 182 185 187 190 189 192 176 161 140 124 111 90 88 82 76 105 115 113 117 122 134 144 150 152 153 154 165 168 162 141 157 147 149 162 167 170 167 156
175 175 179 180 186 183 184 185 188 190 189 177 173 153 141 142 108 110 94 87 89 111 121 129 123 141 145 150 151 154 158 165 157 163 142 148 149 151 157 162 152 159 163
175 179 181 183 188 185 186 184 188 186 186 183 175 160 151 128 101 103 95 90 101 102 112 127 119 124 140 140 138 145 156 159 150 156 155 157 153 153 158 153 150 160 164
176 182 185 185 187 187 187 187 187 185 183 184 181 168 158 144 129 115 114 106 103 106 97 101 98 112 127 129 125 124 129 137 128 124 149 150 146 151 164 160 150 157 173
181 187 187 188 188 188 189 188 186 185 183 183 185 175 166 155 150 145 127 120 112 97 101 107 118 115 113 115 131 127 125 129 135 132 134 146 151 152 156 167 167 171 177
187 188 187 191 190 190 191 188 187 186 182 185 187 181 172 172 163 154 146 138 131 125 134 110 125 129 124 118 120 127 137 145 140 136 141 146 152 161 164 171 174 172 176
189 187 186 188 189 189 191 188 186 188 185 185 186 184 179 180 168 167 166 163 154 146 141 134 135 131 126 125 124 126 125 128 131 134 150 161 163 166 167 161 168 174 177
189 188 185 184 185 190 190 189 188 188 188 188 188 187 185 186 178 178 188 182 166 159 148 157 165 162 150 142 140 143 145 144 140 149 161 163 162 162 162 170 177 178 186
189 183 180 181 189 190 192 190 191 190 192 192 190 191 188 191 187 186 194 191 176 171 158 172 181 178 178 175 168 148 164 166 166 178 169 178 177 169 166 168 173 175 176
179 179 179 184 194 191 193 192 192 194 194 193 192 193 193 195 195 193 204 196 181 182 171 188 184 204 190 188 182 165 177 196 184 181 175 169 162 163 161 171 167 163 181
174 174 175 182 193 193 194 194 197 196 194 194 193 193 195 195 198 200 206 204 188 192 183 199 207 205 204 194 189 178 176 173 164 176 169 161 158 164 172 174 175 181 210
173 174 175 180 193 198 199 197 198 196 195 196 195 195 199 196 200 198 203 206 199 193 202 196 209 204 220 194 187 183 181 170 169 180 173 174 177 182 187 185 205 228 245
185 175 179 178 191 204 202 201 195 195 197 199 196 195 202 199 205 211 212 211 206 191 212 204 207 200 221 202 192 188 185 178 176 179 190 187 193 198 206 223 244 252 260
194 178 188 181 192 201 197 199 195 196 198 199 198 195 205 206 205 217 210 208 215 207 202 203 207 199 213 218 200 197 192 189 187 191 197 201 206 223 243 246 253 258 236
185 176 184 189 189 198 199 200 197 199 199 199 198 194 195 207 203 215 206 219 208 227 196 207 211 209 214 221 205 204 201 200 202 206 209 217 228 238 247 261 237 173 194
Wind_Speed_850mb
38 41 40 32 28 20 16 10 10 11 15 15 21 20 20 12 19 26 23 16 18 28 20 18 20 22 23 34 32 47 44 43 43 39 36 27 29 35 45 55 60 56 62
45 42 39 37 31 22 15 14 6 11 11 7 18 23 19 15 18 22 25 15 5 19 22 18 21 24 23 31 35 45 48 47 46 44 38 24 24 29 52 60 63 63 64
45 45 41 39 31 24 20 12 11 10 6 4 15 18 24 24 16 16 21 19 1 13 20 24 21 21 23 28 32 36 34 36 43 37 38 31 18 42 51 55 65 64 62
45 50 45 41 34 25 19 16 11 4 9 5 7 21 24 29 16 10 22 16 8 10 17 32 24 27 21 22 28 25 21 33 44 37 41 28 41 33 49 65 71 58 72
52 54 48 41 33 26 23 16 11 6 6 12 17 13 23 28 21 5 14 11 10 7 19 30 26 33 22 22 27 30 34 36 36 42 40 42 53 35 53 69 68 61 63
46 47 42 39 33 27 22 17 13 8 4 4 15 19 28 30 18 7 9 17 14 5 17 31 35 28 22 28 28 26 32 34 37 39 36 40 51 45 61 69 67 62 61
45 47 45 42 35 28 25 17 14 9 5 4 8 15 22 20 23 16 13 15 20 12 18 27 34 33 25 26 30 28 35 37 42 41 48 44 43 53 68 66 64 64 56
43 45 45 40 35 29 25 19 15 11 5 2 3 11 11 21 26 24 20 18 18 17 23 21 25 27 27 32 30 32 35 36 47 46 46 49 41 55 60 75 83 69 63
42 44 44 39 33 30 26 20 14 12 8 2 2 7 12 15 22 21 24 27 20 26 23 27 24 31 33 35 42 47 51 48 50 50 47 47 47 53 66 67 73 70 56
41 44 42 38 31 29 27 23 17 13 10 4 2 6 7 16 18 19 20 23 26 33 30 33 36 37 41 47 52 51 52 50 46 43 42 42 48 54 62 50 57 59 66
44 44 42 37 31 29 27 26 19 15 12 7 6 9 7 12 9 16 22 22 30 27 30 37 39 41 42 48 50 51 50 44 45 42 39 35 46 63 55 64 55 49 51
44 41 41 37 34 31 30 26 22 17 15 10 10 12 10 12 11 21 28 29 23 25 30 35 39 42 40 40 39 38 41 41 38 35 28 47 51 55 57 54 45 50 33
42 40 40 39 37 34 33 26 25 21 17 16 12 15 13 13 14 16 25 32 29 29 34 36 37 38 43 39 37 37 39 39 38 33 29 52 54 54 53 57 42 35 25
45 41 42 41 40 37 35 30 26 25 21 20 16 19 15 14 20 22 19 28 31 40 37 33 33 31 34 30 33 37 43 37 34 31 35 43 52 50 63 49 34 32 25
50 45 44 44 44 42 38 33 28 29 25 24 21 23 20 21 22 21 24 22 32 41 38 41 38 25 34 38 40 43 39 40 47 42 44 53 53 44 53 45 33 34 31
51 47 45 46 48 48 44 38 32 33 29 29 25 25 25 24 25 24 27 26 30 28 27 27 33 36 41 34 42 43 42 44 44 43 48 49 36 36 31 27 29 32 31
54 53 52 50 51 52 47 44 37 36 34 31 29 29 32 28 26 25 28 29 27 28 24 15 32 40 42 39 39 38 40 40 40 39 42 40 35 31 37 40 37 36 37
54 60 57 54 54 52 50 45 42 39 37 35 33 34 33 32 30 28 28 33 33 27 21 21 30 35 38 39 39 37 39 42 44 38 35 43 45 39 36 36 46 38 37
52 63 64 59 57 55 53 51 47 44 41 38 37 37 38 38 36 33 32 29 36 32 28 21 27 29 34 39 36 30 36 34 40 30 27 33 35 35 32 31 32 30 28
45 57 66 65 59 60 59 57 52 50 47 41 40 37 40 42 41 41 36 30 34 34 29 23 18 25 32 33 31 27 20 28 34 34 29 32 29 30 31 29 28 28 24
43 51 70 71 67 67 65 64 59 56 50 43 41 39 40 46 43 43 41 38 35 29 29 24 24 21 30 33 35 33 25 21 26 26 31 32 35 37 36 32 28 20 17
42 53 69 72 69 69 70 67 62 56 50 46 44 42 43 44 46 47 44 40 39 34 36 31 28 26 28 35 38 39 29 26 23 22 31 33 34 37 33 27 19 17 16
42 48 60 68 70 71 74 73 64 57 52 49 48 48 47 42 46 51 48 43 44 37 41 35 34 29 30 36 44 49 40 38 32 28 36 37 36 34 26 17 14 15 19
39 46 56 68 72 71 71 72 65 62 55 53 53 54 51 44 47 47 52 49 47 49 39 40 36 35 33 37 49 57 50 50 41 38 32 30 28 24 22 20 20 23 24
42 47 49 58 64 67 68 70 67 67 62 59 57 58 57 47 50 45 46 47 45 49 44 42 38 39 44 41 49 55 54 55 46 40 32 29 26 24 24 23 25 15 8
41 49 42 45 56 60 64 68 72 69 68 66 63 64 59 54 54 51 45 36 41 32 45 38 38 37 41 35 42 50 51 51 48 37 31 27 25 23 17 9 4 14 25
Wind_Direction_850mb
183 185 194 200 207 209 222 232 258 287 309 4 327 318 325 348 344 340 343 323 261 230 223 226 208 187 179 181 180 180 178 176 170 174 175 171 182 186 177 172 173 171 163
158 175 190 197 206 212 210 222 249 270 308 326 311 343 334 315 309 329 344 346 296 200 209 204 183 178 177 182 175 176 177 180 173 177 159 138 155 185 185 183 174 167 175
163 177 185 196 202 204 208 201 225 255 349 34 344 318 320 327 324 339 344 359 223 201 195 169 155 162 176 182 168 177 183 171 175 182 169 143 163 150 175 178 176 169 164
175 179 184 193 198 202 199 194 210 234 325 299 335 328 332 343 314 318 4 24 69 172 175 165 172 162 141 170 162 155 153 163 174 161 168 159 151 163 142 153 157 162 160
173 176 181 188 192 194 191 187 209 225 251 350 348 360 353 349 347 324 14 49 60 141 181 168 170 164 164 175 161 158 162 162 171 166 170 147 147 163 133 130 143 147 155
165 170 177 182 185 189 189 189 200 215 217 326 342 359 345 358 9 63 49 47 41 103 163 169 162 172 185 179 178 160 162 155 158 156 170 153 153 159 134 135 145 149 160
159 166 173 176 182 184 186 188 204 206 207 277 350 17 359 26 55 85 54 50 49 95 138 165 174 183 181 175 177 164 157 154 151 151 157 156 144 155 160 152 151 147 153
159 169 174 177 180 182 187 189 194 203 183 249 10 27 354 23 70 67 51 50 57 93 128 139 156 175 179 171 161 145 144 146 143 147 152 147 143 161 160 155 159 140 144
161 169 173 178 180 184 187 186 197 195 195 223 78 59 3 49 64 54 54 42 78 107 120 131 150 151 151 150 150 144 144 142 145 156 150 151 153 159 167 156 149 146 138
164 170 174 178 181 184 186 187 194 197 197 163 99 82 34 58 46 52 61 56 91 110 104 126 130 143 147 147 149 152 150 137 130 135 152 150 154 159 165 175 174 160 154
170 171 175 177 182 182 185 188 192 188 192 168 162 117 98 85 71 68 70 80 101 108 95 114 123 137 143 148 153 157 151 144 140 134 122 143 150 167 168 164 164 167 165
174 174 176 177 184 182 185 187 190 189 192 176 161 140 124 111 90 88 82 76 105 115 113 117 122 134 144 150 152 153 154 165 168 162 141 157 147 149 162 167 170 167 156
175 175 179 180 186 183 184 185 188 190 189 177 173 153 141 142 108 110 94 87 89 111 121 129 123 141 145 150 151 154 158 165 157 163 142 148 149 151 157 162 152 159 163
175 179 181 183 188 185 186 184 188 186 186 183 175 160 151 128 101 103 95 90 101 102 112 127 119 124 140 140 138 145 156 159 150 156 155 157 153 153 158 153 150 160 164
176 182 185 185 187 187 187 187 187 185 183 184 181 168 158 144 129 115 114 106 103 106 97 101 98 112 127 129 125 124 129 137 128 124 149 150 146 151 164 160 150 157 173
181 187 187 188 188 188 189 188 186 185 183 183 185 175 166 155 150 145 127 120 112 97 101 107 118 115 113 115 131 127 125 129 135 132 134 146 151 152 156 167 167 171 177
187 188 187 191 190 190 191 188 187 186 182 185 187 181 172 172 163 154 146 138 131 125 134 110 125 129 124 118 120 127 137 145 140 136 141 146 152 161 164 171 174 172 176
189 187 186 188 189 189 191 188 186 188 185 185 186 184 179 180 168 167 166 163 154 146 141 134 135 131 126 125 124 126 125 128 131 134 150 161 163 166 167 161 168 174 177
189 188 185 184 185 190 190 189 188 188 188 188 188 187 185 186 178 178 188 182 166 159 148 157 165 162 150 142 140 143 145 144 140 149 161 163 162 162 162 170 177 178 186
189 183 180 181 189 190 192 190 191 190 192 192 190 191 188 191 187 186 194 191 176 171 158 172 181 178 178 175 168 148 164 166 166 178 169 178 177 169 166 168 173 175 176
179 179 179 184 194 191 193 192 192 194 194 193 192 193 193 195 195 193 204 196 181 182 171 188 184 204 190 188 182 165 177 196 184 181 175 169 162 163 161 171 167 163 181
174 174 175 182 193 193 194 194 197 196 194 194 193 193 195 195 198 200 206 204 188 192 183 199 207 205 204 194 189 178 176 173 164 176 169 161 158 164 172 174 175 181 210
173 174 175 180 193 198 199 197 198 196 195 196 195 195 199 196 200 198 203 206 199 193 202 196 209 204 220 194 187 183 181 170 169 180 173 174 177 182 187 185 205 228 245
185 175 179 178 191 204 202 201 195 195 197 199 196 195 202 199 205 211 212 211 206 191 212 204 207 200 221 202 192 188 185 178 176 179 190 187 193 198 206 223 244 252 260
194 178 188 181 192 201 197 199 195 196 198 199 198 195 205 206 205 217 210 208 215 207 202 203 207 199 213 218 200 197 192 189 187 191 197 201 206 223 243 246 253 258 236
185 176 184 189 189 198 199 200 197 199 199 199 198 194 195 207 203 215 206 219 208 227 196 207 211 209 214 221 205 204 201 200 202 206 209 217 228 238 247 261 237 173 194